| time (UTC) | temp F | wind direction | speed knots | gust knots | rain 1hr in | rain 24hr in | rain mn in | humidity % | barometer mb |
| 20260509085517 | 58 | 284 | 3.5 | 11.3 | 0.00 | 0.85 | 0.50 | 79 | 997.5 |
| 20260509084537 | 58 | 260 | 3.5 | 13.0 | 0.00 | 0.85 | 0.50 | 78 | 997.5 |
| 20260509082518 | 58 | 298 | 3.5 | 13.9 | 0.00 | 0.85 | 0.50 | 79 | 997.7 |
| 20260509081517 | 58 | 280 | 3.5 | 10.4 | 0.00 | 0.85 | 0.50 | 79 | 997.4 |
| 20260509080537 | 58 | 284 | 4.3 | 13.9 | 0.00 | 0.85 | 0.50 | 79 | 997.4 |
| 20260509075516 | 58 | 261 | 5.2 | 18.2 | 0.00 | 0.94 | 0.50 | 78 | 997.3 |
| 20260509074518 | 58 | 246 | 5.2 | 13.9 | 0.00 | 0.94 | 0.50 | 78 | 997.3 |
| 20260509073517 | 58 | 265 | 6.1 | 16.5 | 0.00 | 0.94 | 0.50 | 78 | 996.7 |
| 20260509072517 | 58 | 260 | 5.2 | 15.6 | 0.00 | 0.94 | 0.50 | 79 | 996.3 |
| 20260509071536 | 58 | 258 | 6.1 | 11.3 | 0.00 | 0.94 | 0.50 | 79 | 996.9 |
| 20260509070517 | 58 | 263 | 4.3 | 11.3 | 0.00 | 0.94 | 0.50 | 80 | 996.7 |
| 20260509065517 | 58 | 275 | 4.3 | 13.0 | 0.00 | 0.94 | 0.50 | 81 | 996.7 |
| 20260509064517 | 58 | 274 | 4.3 | 20.0 | 0.00 | 0.94 | 0.50 | 81 | 996.6 |
| 20260509063537 | 58 | 259 | 3.5 | 11.3 | 0.00 | 0.94 | 0.50 | 81 | 997.0 |
| 20260509062516 | 58 | 267 | 4.3 | 11.3 | 0.00 | 0.94 | 0.50 | 81 | 997.0 |
| 20260509061517 | 58 | 249 | 4.3 | 16.5 | 0.00 | 0.94 | 0.50 | 81 | 997.4 |
| 20260509060517 | 58 | 254 | 3.5 | 11.3 | 0.00 | 0.94 | 0.50 | 81 | 997.7 |
| 20260509055516 | 58 | 252 | 4.3 | 10.4 | 0.00 | 0.94 | 0.50 | 81 | 998.1 |
| 20260509054516 | 59 | 250 | 2.6 | 10.4 | 0.00 | 0.94 | 0.50 | 82 | 998.3 |
| 20260509053518 | 59 | 256 | 2.6 | 9.6 | 0.00 | 0.94 | 0.50 | 81 | 998.4 |
| 20260509052517 | 59 | 45 | 1.7 | 5.2 | 0.00 | 0.94 | 0.50 | 80 | 998.3 |
| 20260509051536 | 59 | 195 | 2.6 | 7.8 | 0.00 | 0.94 | 0.50 | 80 | 998.4 |
| 20260509050516 | 60 | 272 | 1.7 | 9.6 | 0.00 | 0.94 | 0.50 | 80 | 998.2 |
| 20260509045518 | 60 | 249 | 2.6 | 11.3 | 0.00 | 0.94 | 0.50 | 79 | 998.3 |
| 20260509044516 | 60 | 218 | 4.3 | 9.6 | 0.00 | 0.94 | 0.50 | 78 | 998.2 |
| 20260509043517 | 60 | 274 | 2.6 | 6.1 | 0.00 | 0.94 | 0.50 | 79 | 998.2 |
| 20260509042517 | 61 | 254 | 3.5 | 22.6 | 0.00 | 0.94 | 0.50 | 79 | 997.9 |
| 20260509041517 | 61 | 253 | 3.5 | 17.4 | 0.00 | 0.94 | 0.50 | 78 | 997.5 |
| 20260509040516 | 61 | 308 | 4.3 | 12.2 | 0.00 | 0.94 | 0.50 | 78 | 997.2 |
| 20260509035518 | 61 | 283 | 4.3 | 11.3 | 0.00 | 0.94 | 0.50 | 79 | 997.0 |
| 20260509034517 | 61 | 286 | 4.3 | 13.0 | 0.00 | 0.94 | 0.50 | 80 | 997.0 |
| 20260509033516 | 61 | 266 | 4.3 | 9.6 | 0.00 | 0.94 | 0.50 | 80 | 997.1 |
| 20260509032536 | 61 | 273 | 3.5 | 7.8 | 0.00 | 0.94 | 0.50 | 79 | 996.9 |
| 20260509031517 | 61 | 249 | 4.3 | 11.3 | 0.00 | 0.94 | 0.50 | 80 | 996.7 |
| 20260509030537 | 61 | 264 | 3.5 | 8.7 | 0.00 | 0.94 | 0.50 | 80 | 996.9 |
| 20260509025517 | 61 | 305 | 3.5 | 14.8 | 0.00 | 0.94 | 0.50 | 80 | 996.8 |
| 20260509024518 | 61 | 35 | 3.5 | 8.7 | 0.00 | 0.94 | 0.50 | 80 | 996.7 |
| 20260509023517 | 62 | 246 | 4.3 | 12.2 | 0.00 | 0.94 | 0.50 | 79 | 996.8 |
| 20260509022517 | 61 | 241 | 3.5 | 9.6 | 0.00 | 0.94 | 0.50 | 80 | 997.0 |
| 20260509021516 | 62 | 268 | 2.6 | 8.7 | 0.00 | 0.94 | 0.50 | 80 | 997.3 |
| 20260509020519 | 61 | 265 | 3.5 | 12.2 | 0.00 | 0.94 | 0.50 | 81 | 997.5 |
| 20260509015517 | 61 | 260 | 3.5 | 7.8 | 0.00 | 0.94 | 0.50 | 81 | 997.2 |
| 20260509014516 | 61 | 260 | 3.5 | 16.5 | 0.00 | 0.94 | 0.50 | 82 | 997.5 |
| 20260509013516 | 61 | 246 | 4.3 | 16.5 | 0.00 | 0.94 | 0.50 | 82 | 997.9 |
| 20260509012517 | 61 | 264 | 3.5 | 10.4 | 0.00 | 0.94 | 0.50 | 83 | 997.9 |
| 20260509011517 | 61 | 265 | 4.3 | 16.5 | 0.01 | 0.94 | 0.50 | 83 | 997.9 |
| 20260509010516 | 61 | 251 | 3.5 | 13.0 | 0.01 | 0.94 | 0.50 | 84 | 997.7 |
| 20260509005516 | 61 | 255 | 3.5 | 15.6 | 0.01 | 0.94 | 0.50 | 85 | 997.7 |
| 20260509004517 | 60 | 283 | 3.5 | 7.8 | 0.01 | 0.94 | 0.50 | 87 | 997.9 |
| 20260509003517 | 60 | 283 | 3.5 | 10.4 | 0.01 | 0.94 | 0.50 | 89 | 998.1 |
| 20260509002516 | 60 | 257 | 3.5 | 11.3 | 0.02 | 0.94 | 0.50 | 88 | 998.0 |
| 20260509001518 | 60 | 259 | 3.5 | 10.4 | 0.01 | 0.93 | 0.49 | 89 | 998.0 |
| 20260509000517 | 60 | 282 | 3.5 | 9.6 | 0.03 | 0.93 | 0.49 | 89 | 997.6 |
| 20260508235517 | 60 | 276 | 2.6 | 11.3 | 0.03 | 0.93 | 0.49 | 90 | 998.2 |
| 20260508234536 | 59 | 251 | 5.2 | 16.5 | 0.03 | 0.93 | 0.49 | 89 | 998.2 |
| 20260508233518 | 59 | 241 | 5.2 | 12.2 | 0.03 | 0.93 | 0.49 | 92 | 998.0 |
| 20260508232517 | 58 | 259 | 3.5 | 14.8 | 0.02 | 0.92 | 0.48 | 93 | 998.3 |
| 20260508231516 | 58 | 241 | 1.7 | 7.0 | 0.04 | 0.92 | 0.48 | 94 | 998.8 |
| 20260508230516 | 58 | 245 | 3.5 | 12.2 | 0.03 | 0.90 | 0.46 | 93 | 998.6 |
| 20260508225518 | 58 | 252 | 3.5 | 14.8 | 0.05 | 0.90 | 0.46 | 93 | 998.4 |
| 20260508224517 | 58 | 259 | 5.2 | 19.1 | 0.06 | 0.90 | 0.46 | 92 | 997.7 |
| 20260508223516 | 58 | 254 | 5.2 | 11.3 | 0.06 | 0.90 | 0.46 | 93 | 997.0 |
| 20260508222536 | 58 | 246 | 6.1 | 14.8 | 0.06 | 0.90 | 0.46 | 93 | 997.0 |
| 20260508221518 | 58 | 260 | 5.2 | 15.6 | 0.05 | 0.88 | 0.44 | 94 | 997.1 |
| 20260508220517 | 58 | 255 | 5.2 | 14.8 | 0.07 | 0.87 | 0.43 | 93 | 997.5 |
| 20260508215517 | 59 | 257 | 7.0 | 17.4 | 0.06 | 0.85 | 0.41 | 92 | 997.5 |
| 20260508214516 | 59 | 261 | 4.3 | 26.9 | 0.06 | 0.84 | 0.40 | 92 | 997.7 |
| 20260508213518 | 58 | 262 | 6.1 | 20.0 | 0.06 | 0.84 | 0.40 | 90 | 997.8 |
| 20260508212517 | 58 | 257 | 6.1 | 26.1 | 0.06 | 0.84 | 0.40 | 90 | 997.8 |
| 20260508211516 | 58 | 252 | 6.1 | 22.6 | 0.06 | 0.83 | 0.39 | 89 | 998.1 |
| 20260508210516 | 58 | 251 | 6.1 | 20.0 | 0.04 | 0.80 | 0.36 | 89 | 997.6 |
| 20260508205517 | 59 | 268 | 7.0 | 18.2 | 0.04 | 0.79 | 0.35 | 87 | 997.8 |
| 20260508204517 | 59 | 270 | 5.2 | 13.9 | 0.03 | 0.78 | 0.34 | 86 | 997.8 |
| 20260508203517 | 59 | 260 | 4.3 | 11.3 | 0.03 | 0.78 | 0.34 | 88 | 997.8 |
| 20260508202516 | 59 | 255 | 5.2 | 13.0 | 0.03 | 0.78 | 0.34 | 89 | 997.6 |
| 20260508201518 | 58 | 251 | 4.3 | 12.2 | 0.03 | 0.77 | 0.33 | 90 | 997.3 |
| 20260508200517 | 58 | 248 | 4.3 | 9.6 | 0.02 | 0.76 | 0.32 | 88 | 997.2 |
| 20260508195517 | 58 | 252 | 3.5 | 11.3 | 0.01 | 0.78 | 0.31 | 87 | 997.5 |
| 20260508194516 | 58 | 247 | 4.3 | 12.2 | 0.01 | 0.78 | 0.31 | 88 | 997.9 |
| 20260508193517 | 57 | 248 | 5.2 | 12.2 | 0.01 | 0.78 | 0.31 | 90 | 998.2 |
| 20260508192517 | 57 | 246 | 3.5 | 7.8 | 0.01 | 0.78 | 0.31 | 90 | 998.4 |
| 20260508191516 | 57 | 250 | 3.5 | 10.4 | 0.03 | 0.77 | 0.30 | 90 | 998.5 |
| 20260508190518 | 57 | 3.5 | 16.5 | 0.19 | 0.77 | 0.30 | 90 | 998.9 | |
| 20260508185517 | 57 | 276 | 3.5 | 9.6 | 0.20 | 0.77 | 0.30 | 90 | 999.1 |
| 20260508184536 | 57 | 259 | 3.5 | 10.4 | 0.25 | 0.77 | 0.30 | 92 | 999.1 |
| 20260508183516 | 57 | 253 | 3.5 | 13.9 | 0.25 | 0.77 | 0.30 | 92 | 999.0 |
| 20260508182518 | 56 | 269 | 3.5 | 12.2 | 0.25 | 0.77 | 0.30 | 92 | 999.4 |
| 20260508181517 | 57 | 261 | 3.5 | 8.7 | 0.22 | 0.74 | 0.27 | 89 | 999.3 |
| 20260508180517 | 58 | 247 | 4.3 | 10.4 | 0.06 | 0.58 | 0.11 | 87 | 999.1 |
| 20260508175516 | 59 | 249 | 3.5 | 14.8 | 0.05 | 0.58 | 0.10 | 87 | 999.0 |
| 20260508174538 | 60 | 251 | 2.6 | 7.8 | 0.01 | 0.53 | 0.05 | 84 | 998.8 |
| 20260508173517 | 60 | 265 | 2.6 | 11.3 | 0.02 | 0.53 | 0.05 | 84 | 998.8 |
| 20260508172517 | 60 | 258 | 3.5 | 17.4 | 0.02 | 0.53 | 0.05 | 85 | 998.7 |
| 20260508171656 | 59 | 275 | 4.3 | 10.4 | 0.03 | 0.53 | 0.05 | 86 | 998.5 |
| 20260508170517 | 59 | 269 | 3.5 | 12.2 | 0.04 | 0.53 | 0.05 | 88 | 998.5 |
| 20260508165517 | 59 | 255 | 1.7 | 7.0 | 0.04 | 0.55 | 0.05 | 89 | 998.6 |
| 20260508164536 | 59 | 267 | 2.6 | 7.0 | 0.03 | 0.54 | 0.04 | 88 | 998.3 |
| 20260508163517 | 60 | 248 | 5.2 | 21.7 | 0.02 | 0.53 | 0.03 | 86 | 998.3 |
| 20260508162537 | 60 | 264 | 3.5 | 13.9 | 0.02 | 0.53 | 0.03 | 85 | 998.3 |
| 20260508161516 | 61 | 257 | 4.3 | 12.2 | 0.01 | 0.52 | 0.02 | 82 | 998.3 |
| 20260508160516 | 62 | 245 | 4.3 | 13.9 | 0.00 | 0.51 | 0.01 | 80 | 998.3 |
| 20260508155517 | 62 | 252 | 5.2 | 13.9 | 0.00 | 0.55 | 0.01 | 78 | 998.2 |
| 20260508153517 | 62 | 240 | 4.3 | 13.0 | 0.01 | 0.55 | 0.01 | 79 | 998.3 |
| 20260508152516 | 62 | 242 | 4.3 | 10.4 | 0.01 | 0.55 | 0.01 | 79 | 998.4 |
| 20260508151517 | 63 | 256 | 5.2 | 11.3 | 0.01 | 0.55 | 0.01 | 78 | 998.7 |
| 20260508150537 | 62 | 246 | 6.1 | 17.4 | 0.01 | 0.55 | 0.01 | 78 | 998.7 |
| 20260508145516 | 62 | 266 | 4.3 | 12.2 | 0.01 | 0.58 | 0.01 | 79 | 998.7 |
| 20260508144516 | 62 | 262 | 4.3 | 15.6 | 0.01 | 0.58 | 0.01 | 80 | 998.6 |
| 20260508143517 | 62 | 264 | 2.6 | 10.4 | 0.00 | 0.57 | 0.00 | 79 | 998.8 |
| 20260508142537 | 62 | 253 | 4.3 | 10.4 | 0.00 | 0.57 | 0.00 | 79 | 998.8 |
| 20260508141517 | 62 | 5.2 | 17.4 | 0.00 | 0.57 | 0.00 | 79 | 999.0 | |
| 20260508140518 | 61 | 251 | 2.6 | 8.7 | 0.00 | 0.57 | 0.00 | 80 | 999.2 |
| 20260508135537 | 61 | 253 | 4.3 | 9.6 | 0.00 | 0.61 | 0.00 | 81 | 999.0 |
| 20260508134517 | 61 | 247 | 5.2 | 13.9 | 0.00 | 0.61 | 0.00 | 81 | 999.3 |
| 20260508133516 | 61 | 251 | 4.3 | 12.2 | 0.00 | 0.61 | 0.00 | 81 | 999.2 |
| 20260508132517 | 61 | 228 | 4.3 | 13.0 | 0.00 | 0.61 | 0.00 | 83 | 999.5 |
| 20260508131517 | 61 | 246 | 4.3 | 13.0 | 0.00 | 0.61 | 0.00 | 84 | 999.4 |
| 20260508130516 | 61 | 256 | 3.5 | 9.6 | 0.00 | 0.61 | 0.00 | 85 | 999.5 |
| 20260508125518 | 61 | 5.2 | 22.6 | 0.00 | 0.63 | 0.00 | 86 | 999.4 | |
| 20260508124517 | 61 | 253 | 4.3 | 15.6 | 0.00 | 0.63 | 0.00 | 86 | 999.5 |
| 20260508123516 | 60 | 244 | 3.5 | 11.3 | 0.00 | 0.63 | 0.00 | 87 | 999.4 |
| 20260508122516 | 60 | 253 | 5.2 | 16.5 | 0.00 | 0.63 | 0.00 | 88 | 999.8 |
| 20260508121517 | 60 | 256 | 4.3 | 10.4 | 0.01 | 0.63 | 0.00 | 89 | 999.4 |
| 20260508120537 | 59 | 239 | 5.2 | 20.0 | 0.02 | 0.63 | 0.00 | 89 | 999.2 |
| 20260508115516 | 59 | 259 | 4.3 | 13.0 | 0.03 | 0.65 | 0.63 | 91 | 999.2 |
| 20260508114518 | 58 | 251 | 3.5 | 13.9 | 0.03 | 0.65 | 0.63 | 91 | 999.1 |
| 20260508113517 | 58 | 250 | 5.2 | 15.6 | 0.05 | 0.65 | 0.63 | 91 | 999.1 |
| 20260508112517 | 58 | 255 | 3.5 | 13.0 | 0.06 | 0.65 | 0.63 | 91 | 999.2 |
| 20260508111536 | 58 | 271 | 3.5 | 10.4 | 0.06 | 0.64 | 0.62 | 91 | 999.3 |
| 20260508110517 | 58 | 272 | 2.6 | 9.6 | 0.07 | 0.63 | 0.61 | 91 | 999.5 |
| 20260508105517 | 58 | 263 | 4.3 | 17.4 | 0.08 | 0.62 | 0.60 | 91 | 999.5 |
| 20260508104516 | 58 | 254 | 5.2 | 11.3 | 0.13 | 0.62 | 0.60 | 92 | 1000.1 |
| 20260508103518 | 58 | 251 | 4.3 | 12.2 | 0.18 | 0.60 | 0.58 | 92 | 1000.1 |
| 20260508102517 | 58 | 252 | 5.2 | 8.7 | 0.19 | 0.59 | 0.57 | 92 | 1000.1 |
| 20260508101517 | 58 | 271 | 6.1 | 20.9 | 0.20 | 0.58 | 0.56 | 91 | 1000.8 |
| 20260508100536 | 59 | 256 | 3.5 | 12.2 | 0.20 | 0.56 | 0.54 | 91 | 1000.8 |
| 20260508095518 | 60 | 261 | 2.6 | 7.8 | 0.20 | 0.55 | 0.52 | 90 | 1001.1 |
| 20260508094517 | 61 | 245 | 4.3 | 11.3 | 0.14 | 0.49 | 0.46 | 91 | 1001.4 |
| 20260508093517 | 62 | 244 | 6.1 | 14.8 | 0.10 | 0.43 | 0.40 | 90 | 1000.4 |
| 20260508092516 | 62 | 192 | 6.1 | 17.4 | 0.09 | 0.41 | 0.38 | 89 | 1000.5 |
| 20260508091518 | 62 | 243 | 5.2 | 13.9 | 0.08 | 0.39 | 0.36 | 88 | 1000.6 |
| 20260508090517 | 63 | 334 | 5.2 | 12.2 | 0.06 | 0.37 | 0.34 | 86 | 1000.8 |